[[{"header":{"parameterUnit":"m.s-1","parameterCategory":1,"la1":30.2991,"la2":30.254,"lo1":-89.0895,"lo2":-89.0444,"dy":0.0017,"dx":0.0017,"nx":28,"ny":28,"refTime":"2025-09-19T03:00:00:Z","depth":0,"parameterNumber":2,"parameterNumberName":"U-component_of_WINDS"},"data":[0,0,0,0,0,0,0,0,0,0,0,0,0,0,0,0,0,0,0,0,0,0,0,0,0,0,0,0,0,0,0,0,0,0,0,0,0,0,0,0,0,0,0,0,0,0,0,0,0,0,0,0,0,0,0,0,0,0,1.4474,1.4474,0,1.4466,1.4465,1.4465,1.443,1.4429,1.4428,1.4427,1.4419,1.442,1.442,0,0,0,0,0,0,0,0,0,0,0,0,0,1.446,1.446,1.4474,1.4474,1.4474,1.4466,1.4465,1.4465,1.443,1.4429,1.4428,1.4427,1.4419,1.442,1.442,0,0,0,0,0,0,0,0,0,0,0,0,0,1.446,1.446,1.4474,1.4455,1.4453,1.4466,1.4465,1.4465,1.443,1.4429,1.4428,1.4426,1.4419,1.442,1.442,1.445,0,0,1.4423,1.4423,0,0,0,0,0,0,0,0,1.446,1.4461,1.4458,1.4456,1.4454,1.4447,1.4457,1.446,1.443,1.4439,1.4427,1.4426,1.443,1.4429,1.4431,1.445,1.445,1.4423,1.4424,1.4424,1.4424,0,0,0,0,0,0,0,1.446,1.4461,1.4471,1.4458,1.4456,1.4447,1.4446,1.4458,1.4441,1.4438,1.4436,1.4435,1.4428,1.443,1.443,1.445,1.4423,1.4424,1.4424,1.4425,1.4492,1.4493,0,0,0,0,0,0,1.4463,1.4461,1.4471,1.447,1.4454,1.4448,1.4447,1.4451,1.4441,1.4438,1.4436,1.4433,1.4429,1.4429,1.443,1.4463,1.4424,1.4425,1.4425,1.4491,1.4492,1.4494,0,0,0,0,0,0,1.4463,1.4464,1.4471,1.4465,1.4465,1.445,1.4455,1.4451,1.4453,1.444,1.4436,1.4441,1.4428,1.4429,1.4445,1.4462,1.4425,1.4426,1.4489,1.4491,1.4493,1.453,0,0,0,0,0,0,1.4462,1.4464,1.4475,1.4466,1.4466,1.4487,1.4456,1.4452,1.4454,1.4451,1.4443,1.444,1.4427,1.4444,1.4446,1.4463,1.4426,1.4488,1.449,1.4492,1.4527,1.4533,1.4538,0,0,0,0,0,1.4462,1.4486,1.4476,1.4477,1.4479,1.4488,1.4488,1.4472,1.4456,1.4467,1.4458,1.4441,1.4461,1.4446,1.4448,1.4465,1.4486,1.4489,1.4492,1.4525,1.4532,1.4538,0,0,0,0,0,0,1.4499,1.4485,1.4473,1.4495,1.4493,1.4482,1.4495,1.448,1.4483,1.4479,1.446,1.4458,1.4477,1.4473,1.4458,1.4493,1.447,1.4474,1.4495,1.4501,1.4507,1.4506,1.4427,0,0,0,0,0,1.4509,1.4517,1.4505,1.4526,1.4525,1.4511,1.4514,1.4502,1.4499,1.4497,1.449,1.4488,1.4494,1.4498,1.4502,1.4527,1.4525,1.454,1.4546,1.455,1.4553,1.4564,1.4571,1.4503,1.4503,1.4503,0,0,1.4531,1.4525,1.4531,1.4533,1.453,1.4538,1.451,1.452,1.4526,1.4499,1.4514,1.4509,1.4505,1.4526,1.4534,1.4523,1.4571,1.4554,1.4557,1.4557,1.4568,1.4574,1.458,1.4505,1.4505,1.4505,0,0,1.4575,1.4572,1.4588,1.4585,1.4581,1.4571,1.4575,1.4566,1.4561,1.4576,1.4556,1.4563,1.4573,1.4571,1.4571,1.4615,1.4599,1.4617,1.4645,1.4657,1.4662,1.4666,1.468,1.4686,1.462,1.4621,1.4621,0,1.4603,1.4615,1.4598,1.4609,1.461,1.4587,1.4602,1.4601,1.4598,1.46,1.4587,1.4599,1.4595,1.4614,1.4625,1.4626,1.463,1.4617,1.4663,1.4667,1.4671,1.4684,1.469,1.4623,1.4622,1.4622,1.4622,0,1.4648,1.4657,1.4671,1.4668,1.4671,1.4685,1.467,1.4675,1.4663,1.4655,1.467,1.4664,1.4667,1.4671,1.466,1.4689,1.4681,1.4666,1.4642,1.468,1.4692,1.4697,1.4626,1.4625,1.4624,1.4624,0,0,1.4713,1.4702,1.4707,1.4705,1.4699,1.4705,1.4718,1.472,1.4724,1.4724,1.4733,1.4743,1.4728,1.4729,1.4717,1.4728,1.4761,1.4711,1.4711,1.4719,1.4791,1.4801,1.4807,1.4751,1.4752,1.4753,1.4791,0,1.4754,1.4774,1.476,1.4782,1.4789,1.4767,1.4778,1.4776,1.4768,1.4774,1.4766,1.4772,1.4754,1.4754,1.4763,1.4755,1.4775,1.4753,1.4759,1.4759,1.4758,1.4814,1.4825,1.4861,1.4796,1.4796,1.4797,0,1.4803,1.4804,1.4827,1.4819,1.4821,1.4831,1.4832,1.4837,1.4834,1.4828,1.4829,1.4814,1.4826,1.4805,1.482,1.4805,1.4807,1.4804,1.4805,1.4803,1.4779,1.4812,1.4872,1.4877,1.4805,1.4804,1.4803,0,1.4846,1.4853,1.4868,1.4867,1.4858,1.4866,1.4862,1.4858,1.486,1.4861,1.4862,1.4865,1.4866,1.4868,1.4855,1.4841,1.4872,1.4849,1.4866,1.4867,1.4872,1.4872,1.4931,1.4877,1.4877,1.4877,1.4877,0,1.4891,1.4906,1.4887,1.4895,1.4911,1.4895,1.4911,1.4906,1.4902,1.4909,1.4891,1.4898,1.4881,1.4887,1.4877,1.4891,1.4892,1.4887,1.4884,1.4887,1.4888,1.4887,1.4883,1.4878,1.4878,1.4878,1.4877,0,1.4941,1.4929,1.4943,1.4933,1.4931,1.4943,1.4935,1.4943,1.4935,1.4944,1.4945,1.4933,1.4938,1.4926,1.493,1.4923,1.4942,1.4936,1.4943,1.494,1.4957,1.4955,1.5017,1.5024,1.4967,1.4968,1.4968,0,1.4969,1.498,1.4971,1.4975,1.4972,1.4978,1.498,1.4965,1.4968,1.4965,1.4973,1.4977,1.4979,1.4989,1.498,1.4983,1.4976,1.4997,1.4976,1.4979,1.4974,1.4973,1.4973,1.5001,1.5002,1.5002,1.5003,0,1.5021,1.5014,1.5017,1.5019,1.5021,1.5022,1.5021,1.5025,1.5009,1.5013,1.5018,1.502,1.5024,1.5028,1.5029,1.5026,1.5011,1.501,1.5014,1.5016,1.5019,1.5016,1.4953,1.5008,1.5008,1.5007,1.5007,1.5007,1.5059,1.5067,1.5062,1.5066,1.5064,1.5064,1.507,1.5063,1.5067,1.5069,1.506,1.5067,1.5063,1.5063,1.5062,1.5067,1.5057,1.5063,1.5064,1.5065,1.5067,1.502,1.5067,1.5067,1.5067,1.5067,1.5067,0,1.5108,1.5104,1.5108,1.5107,1.511,1.5097,1.5096,1.5099,1.5105,1.5103,1.5106,1.5112,1.5116,1.5108,1.511,1.5116,1.5109,1.5117,1.5115,1.5114,1.5077,1.5072,1.5122,1.5122,1.5122,1.5122,1.5122,1.5122,1.5133,1.5146,1.5139,1.515,1.5146,1.5152,1.5152,1.5152,1.515,1.5157,1.516,1.5155,1.515,1.5152,1.5155,1.5153,1.5154,1.5163,1.5159,1.5123,1.5117,1.5112,1.5108,1.5164,1.5164,1.5196,1.5196,1.5196]},{"header":{"parameterUnit":"m.s-1","parameterCategory":1,"la1":30.2991,"la2":30.254,"lo1":-89.0895,"lo2":-89.0444,"dy":0.0017,"dx":0.0017,"nx":28,"ny":28,"refTime":"2025-09-19T03:00:00:Z","depth":0,"parameterNumber":3,"parameterNumberName":"V-component_of_WINDS"},"data":[0,0,0,0,0,0,0,0,0,0,0,0,0,0,0,0,0,0,0,0,0,0,0,0,0,0,0,0,0,0,0,0,0,0,0,0,0,0,0,0,0,0,0,0,0,0,0,0,0,0,0,0,0,0,0,0,0,0,2.908,2.9081,0,2.9103,2.9103,2.9103,2.9046,2.9044,2.9042,2.904,2.906,2.9062,2.9064,0,0,0,0,0,0,0,0,0,0,0,0,0,2.8984,2.8986,2.908,2.9081,2.9081,2.9103,2.9103,2.9103,2.9046,2.9044,2.9041,2.9039,2.9059,2.9062,2.9064,0,0,0,0,0,0,0,0,0,0,0,0,0,2.9018,2.8987,2.908,2.9055,2.9053,2.9103,2.9103,2.9104,2.9046,2.9044,2.9041,2.9038,2.9058,2.9062,2.9065,2.9139,0,0,2.9075,2.9076,0,0,0,0,0,0,0,0,2.9016,2.9021,2.9058,2.9057,2.9055,2.9069,2.9076,2.9115,2.9047,2.9049,2.904,2.9037,2.9065,2.9067,2.9077,2.914,2.9141,2.9075,2.9077,2.9079,2.908,0,0,0,0,0,0,0,2.9014,2.902,2.9089,2.9059,2.9057,2.9041,2.9043,2.9083,2.9072,2.9048,2.9044,2.9048,2.9063,2.9074,2.9077,2.9141,2.9075,2.9078,2.908,2.9081,2.9266,2.9269,0,0,0,0,0,0,2.9015,2.9019,2.9088,2.909,2.9028,2.9045,2.9047,2.9067,2.9071,2.9069,2.905,2.9045,2.907,2.9074,2.9078,2.9165,2.9079,2.9082,2.9084,2.9263,2.9266,2.927,0,0,0,0,0,0,2.9013,2.9022,2.9088,2.9053,2.906,2.905,2.9072,2.9069,2.908,2.9072,2.907,2.9064,2.9068,2.9073,2.9125,2.9165,2.9083,2.9086,2.9259,2.9264,2.9268,2.9341,0,0,0,0,0,0,2.9011,2.9022,2.9051,2.9054,2.9062,2.9135,2.9075,2.9071,2.9086,2.908,2.9085,2.9083,2.9066,2.912,2.9128,2.9168,2.9089,2.9256,2.9261,2.9267,2.9335,2.9347,2.9358,0,0,0,0,0,2.9008,2.907,2.9053,2.9061,2.9099,2.9138,2.9142,2.9123,2.909,2.9118,2.9113,2.9083,2.916,2.9126,2.9134,2.9176,2.9253,2.926,2.9266,2.933,2.9345,2.9357,0,0,0,0,0,0,2.907,2.907,2.9051,2.9116,2.9128,2.9128,2.9163,2.914,2.916,2.9153,2.9127,2.9128,2.9184,2.9185,2.9148,2.9248,2.92,2.9209,2.9246,2.926,2.9271,2.927,2.9091,0,0,0,0,0,2.9091,2.9124,2.9122,2.918,2.9186,2.9174,2.919,2.9175,2.9185,2.9189,2.9188,2.9198,2.9224,2.9242,2.9266,2.9334,2.9334,2.9367,2.9379,2.9388,2.9396,2.9432,2.9447,2.9291,2.9291,2.9291,0,0,2.9136,2.914,2.9162,2.9192,2.9199,2.9233,2.9178,2.9216,2.924,2.9194,2.9243,2.9243,2.9252,2.9312,2.9339,2.9315,2.9439,2.9397,2.9404,2.9407,2.944,2.9455,2.9468,2.9296,2.9295,2.9294,0,0,2.9234,2.9241,2.929,2.9298,2.931,2.9301,2.9313,2.9317,2.9315,2.9364,2.933,2.9358,2.9404,2.9412,2.9422,2.9524,2.9496,2.9532,2.9592,2.9628,2.964,2.9651,2.9687,2.97,2.954,2.954,2.954,0,2.9287,2.9338,2.9317,2.9358,2.9372,2.9333,2.9381,2.939,2.9409,2.9419,2.9391,2.9449,2.9452,2.9514,2.9539,2.9548,2.956,2.9531,2.964,2.9651,2.966,2.9694,2.9708,2.9544,2.9544,2.9543,2.9543,0,2.9403,2.9438,2.9476,2.9496,2.9514,2.9559,2.9544,2.9564,2.9547,2.9541,2.9591,2.9594,2.9618,2.9631,2.9614,2.969,2.9675,2.9645,2.9596,2.968,2.9711,2.9724,2.955,2.9549,2.9548,2.9547,0,0,2.9541,2.955,2.9564,2.9572,2.9583,2.9609,2.9651,2.9675,2.9693,2.9707,2.9741,2.9781,2.9753,2.9765,2.9748,2.9779,2.9859,2.9745,2.9745,2.9766,2.9943,2.9966,2.9982,2.9841,2.9844,2.9846,2.9942,0,2.9638,2.9712,2.9694,2.9767,2.9798,2.9762,2.9798,2.9808,2.9803,2.9829,2.9823,2.9852,2.9813,2.982,2.9849,2.9844,2.9895,2.9836,2.9872,2.9873,2.9871,2.9998,3.0023,3.0114,2.9955,2.9957,2.9958,0,2.9761,2.9781,2.9857,2.9862,2.9874,2.9908,2.9929,2.9954,2.9963,2.9958,2.9971,2.9949,2.9989,2.9941,2.9995,2.9956,2.997,2.9969,2.9972,2.9975,2.9921,3.0004,3.0143,3.0156,2.9977,2.9976,2.9974,0,2.9854,2.9899,2.9951,2.9959,2.9966,2.9991,2.9994,3.0002,3.0017,3.0035,3.0045,3.0067,3.0079,3.0096,3.0079,3.0046,3.0137,3.0087,3.0133,3.0133,3.0153,3.0152,3.0296,3.0162,3.0162,3.0162,3.0162,0,2.9964,3.0012,2.9993,3.0025,3.0077,3.0056,3.0108,3.0107,3.0114,3.0144,3.0113,3.0141,3.0118,3.0144,3.0131,3.0179,3.0184,3.018,3.0176,3.0183,3.0184,3.0191,3.0184,3.0166,3.0165,3.0164,3.0163,0,3.0077,3.0066,3.012,3.0122,3.0124,3.0162,3.0164,3.0192,3.0186,3.0224,3.0232,3.0221,3.025,3.0235,3.0265,3.0257,3.0318,3.0305,3.0315,3.0312,3.0359,3.0354,3.0512,3.0532,3.0386,3.0387,3.0388,0,3.0148,3.0184,3.0191,3.0209,3.0215,3.0245,3.0262,3.0242,3.026,3.0274,3.0301,3.0328,3.0348,3.0396,3.039,3.0413,3.0401,3.0455,3.0404,3.041,3.0401,3.04,3.0403,3.0465,3.0466,3.0468,3.0469,0,3.0275,3.0268,3.0293,3.0317,3.0337,3.0354,3.0369,3.0385,3.0366,3.0388,3.0418,3.0434,3.0465,3.0492,3.0512,3.0514,3.0489,3.0485,3.0497,3.0504,3.0508,3.0507,3.0343,3.0481,3.048,3.0479,3.0479,3.0478,3.0368,3.0399,3.0409,3.0438,3.0447,3.0461,3.0488,3.0485,3.0511,3.0535,3.0522,3.0557,3.0565,3.0589,3.0595,3.0622,3.06,3.0617,3.0622,3.0626,3.0632,3.0504,3.0625,3.0625,3.0624,3.0624,3.0624,0,3.0494,3.0498,3.0525,3.0547,3.057,3.0545,3.0559,3.058,3.0612,3.0622,3.0643,3.0677,3.0703,3.07,3.0723,3.0745,3.0734,3.0752,3.075,3.0751,3.065,3.0638,3.0761,3.0761,3.0761,3.0761,3.0761,3.076,3.0562,3.0612,3.0606,3.066,3.0664,3.0699,3.071,3.0722,3.0731,3.0771,3.0793,3.0791,3.0795,3.0819,3.0841,3.0839,3.0849,3.0872,3.0865,3.0772,3.0758,3.0745,3.0733,3.0874,3.0874,3.0964,3.0964,3.0965]}]]